Location: Bégole
(43.1574°N, 0.3291°E)
Time: 20:51:18
(UTC+00:00)

Cosmos 44 - Pass Details

Date: 28 January 2023
Orbit: 583 x 777 km, 65.1° (Epoch: 22 March)

Event Time Altitude Azimuth Distance (km) Brightness Sun altitude
Rises 18:22:01 0° 228° (SW) 2,795 7.5 -14.1°
Reaches altitude 10° 18:24:17 10° 234° (SW) 1,906 6.6 -14.5°
Maximum altitude 18:28:24 46° 309° (NW) 805 3.9 -15.3°
Enters shadow 18:32:35 11° 23° (NNE) 1,938 5.3 -16.0°
